Newport, VT

4:00 PM EDT on April 27, 2017 (GMT -0400)
Newport State

Weather History for KEFK - October, 2012

Change the Weather History Date:

Thursday, October 18, 2012

  Actual Average Record
Temperature  
Mean Temperature 54 °F -  
Max Temperature 67 °F 54 °F 81 °F (1947)
Min Temperature 42 °F 36 °F 20 °F (1972)
Degree Days  
Heating Degree Days 10    
Growing Degree Days 4 (Base 50)    
Moisture  
Dew Point 32 °F    
Average Humidity 45    
Maximum Humidity 74    
Minimum Humidity 17    
Precipitation  
Precipitation 0.00 in - - ()
Sea Level Pressure  
Sea Level Pressure 30.00 in    
Wind  
Wind Speed 5 mph (South)    
Max Wind Speed 16 mph    
Max Gust Speed 23 mph    
Visibility 10 miles    
Events      
Averages and records for this station are not official NWS values.
T = Trace of Precipitation, MM = Missing Value Source: NWS Daily Summary

Daily Weather History Graph

Daily Weather History Graph

Search for Another Location

Airport or City:

Trip Planner

Search our weather history database for the weather conditions in past years. The results will help you decide how hot, cold, wet, or windy it might be!

Date:

Astronomy

Oct. 18, 2012 Rise Set
Actual Time 7:08 AM EDT 5:58 PM EDT
Civil Twilight 6:39 AM EDT 6:27 PM EDT
Nautical Twilight 6:05 AM EDT 7:01 PM EDT
Astronomical Twilight 5:31 AM EDT 7:35 PM EDT
Moon 10:56 AM EDT (10/18) 8:20 PM EDT (10/18)
Length of Visible Light 11h 48m
Length of Day
10h 49m
Waxing Crescent, 14% of the Moon is Illuminated
Oct 18
Waxing Crescent
Oct 21
First Quarter
Oct 29
Full
Nov 6
Last Quarter
Nov 13
New

Hourly Weather History & Observations

Time (EDT) Temp. Windchill Dew Point Humidity Pressure Visibility Wind Dir Wind Speed Gust Speed Precip Events Conditions
12:15 AM 48.6 °F - 35.1 °F 60% 29.97 in 10.0 mi Calm Calm - N/A   Mostly Cloudy
12:35 AM 48.2 °F - 36.3 °F 63% 29.97 in 10.0 mi SSW 3.5 mph - N/A   Overcast
12:55 AM 47.7 °F - 36.3 °F 65% 29.97 in 10.0 mi Calm Calm - N/A   Mostly Cloudy
1:15 AM 48.0 °F - 35.6 °F 62% 29.98 in 10.0 mi SSW 4.6 mph - N/A   Mostly Cloudy
1:35 AM 47.8 °F - 36.9 °F 66% 29.98 in 10.0 mi South 3.5 mph - N/A   Overcast
1:55 AM 47.5 °F - 36.7 °F 66% 29.98 in 10.0 mi SW 3.5 mph - N/A   Mostly Cloudy
2:15 AM 49.1 °F - 35.8 °F 60% 29.98 in 10.0 mi Calm Calm - N/A   Mostly Cloudy
2:35 AM 48.7 °F - 36.0 °F 61% 29.98 in 10.0 mi South 3.5 mph - N/A   Mostly Cloudy
2:55 AM 48.7 °F - 35.4 °F 60% 29.98 in 10.0 mi South 4.6 mph - N/A   Scattered Clouds
3:15 AM 46.6 °F - 36.0 °F 67% 29.98 in 10.0 mi Calm Calm - N/A   Scattered Clouds
3:35 AM 47.5 °F - 35.6 °F 63% 29.98 in 10.0 mi South 3.5 mph - N/A   Mostly Cloudy
3:55 AM 47.7 °F - 34.9 °F 61% 29.98 in 10.0 mi South 4.6 mph - N/A   Scattered Clouds
4:15 AM 46.8 °F - 33.6 °F 60% 29.98 in 10.0 mi SSE 4.6 mph - N/A   Clear
4:35 AM 45.3 °F 42.3 °F 34.0 °F 65% 29.98 in 10.0 mi SSE 5.8 mph - N/A   Clear
4:55 AM 44.8 °F 43.3 °F 34.5 °F 67% 29.98 in 10.0 mi SSW 3.5 mph - N/A   Clear
5:15 AM 44.6 °F 42.2 °F 35.1 °F 69% 29.99 in 10.0 mi SSW 4.6 mph - N/A   Clear
5:35 AM 45.7 °F 42.7 °F 32.9 °F 61% 29.99 in 10.0 mi South 5.8 mph - N/A   Clear
5:55 AM 45.0 °F - 33.1 °F 63% 30.00 in 10.0 mi Calm Calm - N/A   Clear
6:15 AM 43.9 °F - 33.8 °F 68% 30.00 in 10.0 mi Calm Calm - N/A   Clear
6:35 AM 44.6 °F 42.2 °F 34.3 °F 67% 30.00 in 10.0 mi SSW 4.6 mph - N/A   Clear
6:55 AM 42.6 °F 39.9 °F 34.7 °F 74% 30.00 in 10.0 mi SW 4.6 mph - N/A   Clear
7:15 AM 42.8 °F 40.1 °F 34.9 °F 74% 30.01 in 10.0 mi SW 4.6 mph - N/A   Scattered Clouds
7:35 AM 43.0 °F 41.3 °F 34.3 °F 72% 30.01 in 10.0 mi SW 3.5 mph - N/A   Clear
7:55 AM 44.1 °F 40.8 °F 34.9 °F 70% 30.01 in 10.0 mi South 5.8 mph - N/A   Clear
8:15 AM 49.1 °F - 33.3 °F 54% 30.01 in 10.0 mi South 5.8 mph - N/A   Clear
8:35 AM 50.2 °F - 34.3 °F 55% 30.01 in 10.0 mi South 3.5 mph - N/A   Clear
8:55 AM 50.9 °F - 37.0 °F 59% 30.02 in 10.0 mi Calm Calm - N/A   Clear
9:15 AM 52.7 °F - 36.5 °F 54% 30.02 in 10.0 mi South 3.5 mph - N/A   Clear
9:35 AM 54.0 °F - 35.2 °F 49% 30.03 in 10.0 mi SSW 5.8 mph - N/A   Clear
9:55 AM 53.4 °F - 36.5 °F 53% 30.03 in 10.0 mi SSW 4.6 mph - N/A   Clear
10:15 AM 55.2 °F - 36.7 °F 50% 30.03 in 10.0 mi Calm Calm - N/A   Clear
10:35 AM 58.1 °F - 35.8 °F 43% 30.02 in 10.0 mi Calm Calm - N/A   Clear
10:55 AM 61.3 °F - 35.4 °F 38% 30.02 in 10.0 mi SSE 9.2 mph - N/A   Clear
11:15 AM 61.7 °F - 30.2 °F 30% 30.02 in 10.0 mi SSE 13.8 mph 21.9 mph N/A   Clear
11:35 AM 62.6 °F - 29.1 °F 28% 30.02 in 10.0 mi SSE 10.4 mph 20.7 mph N/A   Clear
11:55 AM 63.7 °F - 27.0 °F 25% 30.02 in 10.0 mi SSE 12.7 mph 20.7 mph N/A   Clear
12:15 PM 63.7 °F - 26.8 °F 25% 30.01 in 10.0 mi SSE 10.4 mph - N/A   Clear
12:35 PM 63.0 °F - 24.8 °F 23% 30.01 in 10.0 mi SSE 16.1 mph 21.9 mph N/A   Clear
12:55 PM 64.6 °F - 24.1 °F 21% 30.00 in 10.0 mi SSE 16.1 mph - N/A   Clear
1:15 PM 65.5 °F - 23.7 °F 21% 30.00 in 10.0 mi SE 15.0 mph 20.7 mph N/A   Clear
1:35 PM 65.5 °F - 24.6 °F 21% 30.00 in 10.0 mi SE 16.1 mph 20.7 mph N/A   Clear
1:55 PM 65.3 °F - 27.3 °F 24% 30.00 in 10.0 mi SSE 10.4 mph 19.6 mph N/A   Clear
2:15 PM 64.4 °F - 25.7 °F 23% 30.00 in 10.0 mi SSE 13.8 mph - N/A   Clear
2:35 PM 66.6 °F - 29.3 °F 25% 29.99 in 10.0 mi SE 13.8 mph 18.4 mph N/A   Clear
2:55 PM 67.1 °F - 25.9 °F 21% 29.99 in 10.0 mi SE 16.1 mph 19.6 mph N/A   Clear
3:15 PM 66.7 °F - 24.8 °F 21% 29.98 in 10.0 mi SE 15.0 mph 23.0 mph N/A   Clear
3:35 PM 67.1 °F - 20.7 °F 17% 29.98 in 10.0 mi SSE 15.0 mph 21.9 mph N/A   Clear
3:55 PM 66.7 °F - 20.3 °F 17% 29.97 in 10.0 mi SSE 12.7 mph 20.7 mph N/A   Clear
4:15 PM 66.7 °F - 20.7 °F 17% 29.98 in 10.0 mi South 10.4 mph 17.3 mph N/A   Clear
4:35 PM 66.0 °F - 24.1 °F 20% 29.98 in 10.0 mi SSE 9.2 mph - N/A   Clear
4:55 PM 65.5 °F - 23.4 °F 20% 29.97 in 10.0 mi South 9.2 mph - N/A   Clear
5:15 PM 64.2 °F - 25.2 °F 23% 29.97 in 10.0 mi SSE 6.9 mph - N/A   Clear
5:35 PM 61.0 °F - 27.3 °F 28% 29.97 in 10.0 mi South 3.5 mph - N/A   Clear
5:55 PM 61.7 °F - 25.7 °F 25% 29.97 in 10.0 mi Calm Calm - N/A   Clear
6:15 PM 61.2 °F - 25.5 °F 26% 29.98 in 10.0 mi South 3.5 mph - N/A   Clear
6:35 PM 59.0 °F - 28.9 °F 32% 29.98 in 10.0 mi SW 5.8 mph - N/A   Clear
6:55 PM 59.0 °F - 28.6 °F 31% 29.99 in 10.0 mi South 5.8 mph - N/A   Clear
7:15 PM 59.5 °F - 28.4 °F 31% 29.99 in 10.0 mi South 4.6 mph - N/A   Clear
7:35 PM 58.1 °F - 29.8 °F 34% 30.00 in 10.0 mi South 3.5 mph - N/A   Clear
7:55 PM 57.6 °F - 30.6 °F 36% 30.00 in 10.0 mi South 4.6 mph - N/A   Clear
8:15 PM 57.0 °F - 30.9 °F 37% 30.01 in 10.0 mi SSW 4.6 mph - N/A   Clear
8:35 PM 56.7 °F - 30.2 °F 37% 30.01 in 10.0 mi South 4.6 mph - N/A   Clear
8:55 PM 54.9 °F - 31.6 °F 41% 30.03 in 10.0 mi SSW 6.9 mph - N/A   Clear
9:15 PM 56.3 °F - 31.1 °F 38% 30.04 in 10.0 mi South 5.8 mph - N/A   Clear
9:35 PM 54.9 °F - 32.0 °F 42% 30.05 in 10.0 mi SSE 6.9 mph - N/A   Clear
9:55 PM 53.2 °F - 32.9 °F 46% 30.05 in 10.0 mi SSE 4.6 mph - N/A   Clear
10:15 PM 53.4 °F - 32.9 °F 46% 30.05 in 10.0 mi South 5.8 mph - N/A   Clear
10:35 PM 52.9 °F - 33.8 °F 48% 30.05 in 10.0 mi SSE 6.9 mph - N/A   Clear
10:55 PM 53.8 °F - 35.8 °F 51% 30.05 in 10.0 mi SSE 8.1 mph - N/A   Clear
11:15 PM 53.8 °F - 37.6 °F 54% 30.04 in 10.0 mi SSE 8.1 mph - N/A   Clear
11:35 PM 53.8 °F - 39.0 °F 57% 30.04 in 10.0 mi SSE 9.2 mph - N/A   Clear
11:55 PM 53.8 °F - 39.2 °F 58% 30.04 in 10.0 mi SSE 6.9 mph - N/A   Clear